SCP
0 0 0 0 0 0 0 0 0 0 0 0 0 0 0 0 0 0 0 0 0 0 0 0 0 0 0 0 0 0 0 0 0 0 0 0 0 0 0 0 0 0 0 0 0 0 0 0 0
0 0 0 0 0 0 0 0 0 0 0 0 0 0 0 0 0 0 0 0 0 0 0 0 0 0 0 0 0 0 0 0 0 0 0 0 0 0 0 0 0 0 0 0 0 0 0 0 0
0 0 0 0 0 0 0 0 0 0 0 0 0 0 0 0 0 0 0 0 0 0 0 0 0 0 0 0 0 0 0 0 0 0 0 0 0 0 0 0 0 0 0 0 0 0 0 0 0
0 0 0 0 0 0 0 0 0 0 0 0 0 0 0 0 0 0 0 0 0 0 0 0 0 0 0 0 0 0 0 0 0 0 0 0 0 0 0 0 0 0 0 0 0 0 0 0 0
0 0 0 0 0 0 0 0 0 0 0 0 0 0 0 0 0 0 0 0 0 0 0 0 0 0 0 0 0 0 0 0 0 0 0 0 0 0 0 0 0 0 0 0 0 0 0 0 0
0 0 0 0 0 0 0 0 0 0 0 0 0 0 0 0 0 0 0 0 0 0 0 0 0 0 0 0 0 0 0 0 0 0 0 0 0 0 0 0 0 0 0 0 0 0 0 0 0
0 0 0 0 0 0 0 0 0 0 0 0 0 0 0 0 0 0 0 0 0 0 0 0 0 0 0 0 0 0 0 0 0 0 0 0 0 0 0 0 0 0 0 0 0 0 0 0 0
0 0 0 0 0 0 0 0 0 0 0 0 0 0 0 0 0 0 0 0 0 0 0 0 0 0 0 0 0 0 0 0 0 0 0 0 0 0 0 0 0 0 0 0 0 0 0 0 0
0 0 0 0 0 0 0 0 0 0 0 0 0 0 0 0 0 0 0 0 0 0 0 0 0 0 0 0 0 0 0 0 0 0 0 0 0 0 0 0 0 0 0 0 0 0 0 0 0
0 0 0 0 0 0 0 0 0 0 0 0 0 0 0 0 0 0 0 0 0 0 0 0 0 0 0 0 0 0 0 0 0 0 0 0 0 0 0 0 0 0 0 0 0 0 0 -0 -0
0 0 0 0 0 0 0 0 0 0 0 0 0 0 0 0 0 0 0 0 0 0 0 0 0 0 0 0 0 0 0 0 0 0 0 0 0 0 0 0 0 0 0 0 0 0 -0 -0 -0
0 0 0 0 0 0 0 0 0 0 0 0 0 0 0 0 0 0 0 0 0 0 0 0 0 0 0 0 0 0 0 0 0 0 0 0 0 0 0 0 0 0 0 0 0 0 -0 -0 -0
0 0 0 0 0 0 0 0 0 0 0 0 0 0 0 0 0 0 0 0 0 0 0 0 0 0 0 0 0 0 0 0 0 0 0 0 0 0 0 0 0 0 0 0 0 0 -0 -0 -0
0 0 0 0 0 0 0 0 0 0 0 0 0 0 0 0 0 0 0 0 0 0 0 0 0 0 0 0 0 0 0 0 0 0 0 0 0 0 0 0 0 0 0 0 0 0 -0 -0 -0
0 0 0 0 0 0 0 0 0 0 0 0 0 0 0 0 0 0 0 0 0 0 0 0 0 0 0 0 0 0 0 0 0 0 0 0 0 0 -0 -0 0 0 0 0 0 0 -0 -0 -0
0 0 0 0 0 0 0 0 0 0 0 0 0 0 0 0 0 0 0 0 0 0 0 0 0 0 0 0 0 0 0 0 0 0 0 0 0 0 -0 -0 -0 -0 -0 0 -0 -0 -0 -0 -0
0 0 0 0 0 0 0 0 0 0 0 0 0 0 0 0 0 0 0 0 0 0 0 0 0 0 0 0 0 0 0 0 0 0 0 0 0 0 0 -0 -0 -0 -0 -0 -0 -0 -0 0 -0
0 0 0 0 0 0 0 0 0 0 0 0 0 0 0 0 0 0 0 0 0 0 0 0 0 0 0 0 0 0 0 0 0 0 -0 -0 -0 -0 0 0 -0 -0 -0 -0 -0 -0 0 0 0
0 0 0 0 0 0 0 0 0 0 0 0 0 0 0 0 0 0 0 0 0 0 0 0 0 0 0 0 0 0 0 0 0 0 -0 -0 -0 -0 0 0 0 0 -0 -0 -0 -0 0 0 0
0 0 0 0 0 0 0 0 0 0 0 0 0 0 0 0 0 0 0 0 0 0 0 0 0 0 0 0 0 0 0 0 0 -0 -0 -0 -0 -0 0 0 0 0 0 -0 -0 -0 0 0 0
0 0 0 0 0 0 0 0 0 0 0 0 0 0 0 0 0 0 0 0 0 0 0 0 0 0 0 0 0 0 0 0 -0 -0 -0 -0 -0 -0 -0 0 0 0 0 -0 -0 -0 0 0 0
0 0 0 0 0 0 0 0 0 0 0 0 0 0 0 0 0 0 0 0 0 0 0 0 0 0 0 0 0 0 0 0 -0 -0 -0 -0 -0 -0 -0 -0 -0 -0 -0 -0 -0 -0 0 0 0
0 0 0 0 0 0 0 0 0 0 0 0 0 0 0 0 0 0 0 0 0 0 0 0 0 0 0 0 0 0 0 0 0 -0 -0 -0 -0 -0 -0 -0 -0 -0 -0 -0 -0 -0 -0 -0 -0
0 0 0 0 0 0 0 0 0 0 0 0 0 0 0 0 0 0 0 0 0 0 0 0 0 0 0 0 0 0 0 0 0 -0 -0 -0 -0 -0 -0 -0 -0 -0 -0 -0 -0 -0 -0 -0 -0
0 0 0 0 0 0 0 0 0 0 0 0 0 0 0 0 0 0 0 0 0 0 0 -0 0 0 0 0 0 0 0 0 0 0 0 0 0 0 0 0 0 0 0 0 -0 -0 -0 -0 -0
0 0 0 0 0 0 0 0 0 0 0 0 0 0 0 0 0 0 0 0 0 0 0 0 0 0 0 0 0 0 0 0 0 0 0 0 0 0 0 0 0 0 0 0 0 0 0 0 0
0 0 0 0 0 0 0 0 0 0 0 0 0 0 0 0 0 0 0 0 0 0 0 0 0 0 0 0 0 0 0 0 0 0 0 0 0 0 0 0 0 0 0 0 0 0 0 0 0
0 0 0 0 0 0 0 0 0 0 0 0 0 0 0 0 0 0 0 0 0 0 0 0 0 0 0 0 0 0 0 0 0 0 0 0 0 0 0 0 0 0 0 0 0 0 0 0 0
0 0 0 0 0 0 0 0 0 0 0 0 0 0 0 0 0 0 0 0 0 0 0 0 0 0 0 0 0 0 0 0 0 0 0 0 0 0 0 0 0 0 0 0 0 0 0 0 0
0 0 0 0 0 0 0 0 0 0 0 0 0 0 0 0 0 0 0 0 0 0 0 0 0 0 0 0 0 0 0 0 0 0 0 0 0 0 0 0 0 0 0 0 0 0 0 0 0
Wind_Speed
11 9 5 4 5 1 8 8 7 6 6 7 7 5 7 8 7 7 5 5 5 6 8 9 8 7 7 8 8 8 8 9 10 10 9 9 9 9 9 9 8 8 8 8 7 8 7 7 8
8 6 5 5 2 5 8 8 9 8 6 5 6 6 7 8 8 7 6 5 5 7 7 8 9 7 8 8 8 7 8 9 9 10 9 9 9 8 8 9 8 8 8 8 7 7 7 7 8
6 5 5 3 5 7 8 8 7 7 5 4 5 6 6 7 6 5 6 5 6 8 7 9 8 8 8 8 8 8 8 9 9 9 9 9 9 8 8 8 8 7 7 7 7 7 7 7 7
4 5 4 1 9 9 8 7 6 5 6 5 5 7 7 6 5 7 7 6 7 8 7 10 7 7 7 7 7 8 8 9 9 9 9 8 8 8 7 7 7 7 6 6 6 7 6 6 6
5 4 1 6 10 9 8 7 5 5 5 6 6 8 9 7 8 8 7 6 7 7 7 10 7 7 7 7 7 7 8 8 8 9 9 8 7 7 7 6 6 6 5 5 5 5 5 5 4
4 3 2 8 10 8 8 6 5 7 7 6 6 8 8 7 8 7 7 6 7 7 7 9 9 7 7 6 7 7 7 7 8 8 8 8 7 7 6 6 6 5 5 5 4 4 4 4 3
4 2 5 8 8 8 7 6 6 6 7 6 4 7 9 8 8 7 7 7 7 7 7 7 9 8 8 7 7 7 7 7 8 7 7 7 7 7 6 6 5 5 4 4 4 4 3 3 3
4 2 4 7 7 8 6 5 7 7 8 6 2 5 8 10 8 8 7 7 7 6 6 6 7 7 7 8 9 7 7 7 7 7 7 6 7 7 7 7 5 4 4 4 3 3 3 3 3
5 2 6 8 7 7 5 5 6 6 8 6 5 7 11 13 10 8 8 7 7 6 6 5 6 6 5 6 8 8 8 7 7 7 7 6 5 6 6 6 5 4 3 3 2 2 3 5 6
3 3 8 6 6 5 4 5 5 5 7 8 9 10 12 11 9 8 7 7 7 6 6 5 5 5 5 4 5 4 4 5 4 4 4 4 3 2 3 7 5 4 3 4 3 4 6 8 5
1 4 5 5 5 4 4 5 4 4 6 7 9 12 12 11 9 7 7 6 6 6 5 5 5 4 4 3 3 2 2 3 3 4 3 3 3 3 3 3 4 4 5 3 5 6 4 2 1
1 3 2 3 3 3 4 5 5 6 7 7 9 11 11 10 8 7 6 6 6 5 5 5 5 4 3 2 2 2 2 2 3 4 2 3 2 1 1 1 2 2 2 1 1 1 1 1 1
1 2 3 3 3 4 4 5 6 7 8 9 10 10 10 8 7 6 6 5 5 5 4 4 4 4 3 2 0 2 1 1 3 3 2 1 2 1 1 1 0 1 1 2 2 1 1 1 2
2 1 2 3 4 4 5 5 5 7 8 9 10 9 9 8 7 6 6 5 5 5 4 4 4 5 3 2 1 0 1 2 2 2 2 1 1 1 1 2 1 1 1 0 0 0 1 1 1
2 2 3 3 3 3 3 5 5 7 8 9 9 8 8 7 6 6 5 5 5 5 5 5 5 5 3 3 2 1 1 2 1 2 2 1 1 1 1 1 1 1 1 1 1 1 1 2 1
5 4 3 4 2 2 4 5 7 7 7 8 7 8 7 7 6 5 5 4 4 5 5 5 4 5 4 3 1 1 0 1 1 1 1 1 0 1 1 1 0 0 1 1 1 2 1 1 1
6 3 2 4 2 2 2 4 6 5 6 7 7 7 7 7 6 6 5 5 5 5 5 5 4 4 4 4 2 2 1 1 1 0 1 1 1 1 2 0 0 2 1 1 2 1 1 1 1
2 1 1 2 2 2 2 3 5 5 5 5 6 7 7 7 6 6 5 5 5 5 5 5 5 4 3 3 3 2 2 1 1 0 0 1 1 1 2 1 0 2 1 1 1 1 1 1 1
3 2 1 1 2 2 2 2 3 6 6 5 6 7 7 7 7 6 6 6 6 6 5 5 4 4 3 2 2 2 2 2 1 1 1 1 1 1 2 1 1 2 1 2 2 2 2 1 1
5 4 2 3 3 3 2 2 3 5 5 5 5 7 7 7 8 7 7 6 7 6 6 6 5 5 4 3 1 1 1 1 1 0 1 1 2 2 2 2 2 2 1 2 2 2 2 1 1
6 6 4 3 3 5 5 5 6 5 5 5 6 6 6 6 7 8 8 7 7 7 7 5 5 5 4 3 3 2 2 2 2 1 1 1 1 2 1 1 2 2 3 1 2 3 3 2 2
6 4 5 5 7 5 6 4 5 7 7 7 7 7 7 7 7 7 8 8 8 7 7 7 6 5 4 4 3 3 2 1 1 1 1 1 0 1 1 1 2 2 2 2 3 2 2 3 3
3 2 5 7 7 6 7 7 4 7 8 8 8 8 8 8 8 8 7 7 7 7 7 7 6 5 5 4 3 3 3 2 1 1 1 1 1 1 1 1 1 2 2 1 2 2 3 3 3
4 5 5 7 8 8 5 7 3 5 5 6 8 8 8 8 8 8 7 7 6 7 7 7 7 6 5 5 4 4 3 2 1 1 1 2 2 1 1 1 2 2 2 2 2 3 3 3 3
9 8 6 7 7 4 3 6 2 2 3 4 6 8 9 8 8 8 8 8 7 7 7 7 7 7 6 5 4 4 3 3 3 2 1 2 2 1 1 2 2 2 2 3 3 3 3 3 3
9 10 6 5 5 3 5 5 1 3 3 4 5 7 8 9 8 8 8 8 7 7 7 7 7 7 6 6 5 4 4 3 2 2 2 2 2 1 1 2 3 3 3 3 3 3 3 2 3
8 9 7 7 7 6 4 3 4 4 4 6 7 8 9 9 9 8 8 8 8 7 7 7 7 7 6 6 5 4 4 3 2 2 3 2 2 2 2 3 3 2 2 3 3 2 3 2 3
6 5 6 8 6 7 5 5 2 5 5 7 8 8 8 8 9 8 8 8 7 7 7 7 7 7 6 6 5 4 4 4 3 3 2 2 2 2 2 2 2 2 3 3 4 3 2 3 3
7 8 7 6 7 7 5 1 3 1 4 5 7 7 7 8 8 8 7 7 7 7 7 7 7 7 6 6 5 4 4 4 4 3 3 3 3 2 3 3 3 3 3 3 3 3 3 3 2
7 8 9 7 6 7 7 0 5 1 2 3 4 5 5 6 7 7 7 7 6 6 5 5 5 6 6 6 5 5 4 4 4 3 3 3 3 3 3 3 3 3 3 3 3 4 3 3 3
Wind_Direction
177 181 201 227 234 145 57 52 51 54 58 54 49 47 50 38 30 65 84 90 100 111 116 130 126 127 126 129 128 131 133 136 134 133 133 131 129 129 128 129 130 129 127 129 132 129 129 132 139
172 181 222 240 295 62 61 49 52 55 76 84 72 67 68 66 58 84 98 99 114 110 114 115 121 122 120 121 121 124 128 132 132 133 131 128 126 125 126 128 128 128 128 130 132 128 125 130 137
177 221 256 264 41 44 53 54 62 78 81 72 76 59 53 66 75 88 97 117 119 111 114 111 124 121 119 119 118 120 124 130 134 133 130 128 127 129 130 131 130 129 131 134 132 128 126 130 137
207 226 237 8 60 54 50 57 73 90 80 70 87 83 77 58 72 96 112 118 115 116 117 111 122 120 119 119 119 119 122 127 132 134 134 133 132 131 131 129 135 137 137 136 135 134 135 135 136
235 253 193 71 64 60 57 55 64 71 73 80 89 95 89 79 93 106 114 117 112 113 115 117 120 120 120 121 124 128 129 130 132 134 137 134 134 132 130 132 136 140 144 145 143 142 142 141 146
242 251 45 61 66 67 65 64 66 73 87 94 101 103 93 110 112 114 115 112 110 114 119 122 130 128 126 126 127 126 128 133 137 138 139 139 139 139 140 145 147 152 152 150 149 152 152 145 151
296 350 52 60 68 71 58 54 58 73 87 86 97 101 113 127 120 119 113 111 111 110 112 120 130 134 141 136 129 127 124 124 129 131 132 137 141 144 147 149 152 153 151 154 163 170 169 164 169
294 301 63 64 60 66 70 65 58 65 80 92 101 104 124 132 131 124 119 117 112 108 109 109 122 126 138 138 136 135 131 126 128 134 135 140 151 154 156 157 144 152 153 161 170 170 170 183 182
260 283 53 52 53 70 80 78 74 80 98 96 82 82 112 130 137 135 130 123 115 107 107 112 115 121 129 133 138 149 148 142 151 148 149 169 164 152 159 116 125 150 162 171 172 173 194 203 189
268 23 49 41 46 67 73 70 94 115 104 109 110 109 124 138 144 142 135 133 126 123 123 121 117 116 127 128 134 149 147 142 154 138 156 159 140 147 129 122 142 154 169 179 183 207 215 226 188
7 29 43 53 55 65 83 83 90 97 87 96 123 134 142 147 150 146 137 131 126 133 128 126 122 130 131 125 132 125 128 136 148 141 158 139 159 157 157 153 161 167 182 186 175 206 218 212 189
71 57 46 51 58 62 76 93 84 69 75 95 120 136 146 154 153 150 143 137 136 141 136 129 128 121 108 98 121 136 136 143 139 137 165 139 148 150 129 169 146 169 161 166 214 215 197 237 206
101 59 57 72 82 80 97 98 89 88 94 111 125 139 149 151 149 144 142 142 142 147 147 134 134 124 122 119 156 106 119 138 130 129 134 151 154 154 148 138 169 177 160 185 196 211 200 241 208
49 70 105 107 106 109 109 108 105 100 117 127 136 143 148 148 149 147 153 152 153 155 149 145 149 133 136 139 156 149 137 136 126 129 127 188 155 151 193 175 183 200 206 161 223 228 238 243 262
201 186 145 129 125 122 142 114 101 114 135 139 143 145 148 152 154 158 158 163 161 160 152 154 158 145 148 159 180 164 173 135 134 127 137 182 186 169 219 184 198 206 224 164 205 208 228 227 217
209 213 163 123 127 155 241 98 107 134 149 147 151 152 155 156 160 159 162 169 166 164 154 161 167 157 156 151 167 160 139 139 147 148 144 172 192 215 248 235 215 254 236 202 193 226 226 253 254
212 216 141 135 153 183 231 104 118 149 161 155 162 161 163 159 165 163 167 166 165 167 160 164 169 169 161 151 154 162 141 161 187 169 169 159 208 231 249 289 25 252 243 239 251 144 255 236 255
226 224 191 151 131 203 194 127 137 164 176 164 165 166 170 170 169 167 170 165 161 160 163 167 168 166 168 163 161 162 156 172 164 119 154 232 220 223 259 203 232 269 258 266 282 248 245 255 260
258 256 243 121 136 229 217 175 164 171 184 181 175 171 176 174 165 164 169 167 160 161 164 170 168 161 178 176 187 182 176 177 176 182 177 226 241 215 235 245 190 263 261 274 261 251 205 222 220
233 232 210 172 168 243 231 225 196 184 189 191 187 180 181 172 165 167 170 167 166 168 172 172 175 171 181 165 184 201 200 203 170 199 188 229 219 228 207 215 232 246 258 250 255 252 265 245 225
236 241 228 204 190 215 238 221 198 187 189 191 195 189 181 173 172 172 175 176 174 175 177 175 175 175 184 177 185 190 188 210 179 190 200 204 212 211 243 221 246 249 255 243 242 239 243 255 240
233 228 233 219 228 214 237 248 185 189 191 192 195 190 183 176 173 171 175 180 182 178 174 176 175 178 179 195 205 219 220 212 192 220 194 155 168 238 216 236 245 257 258 242 248 229 257 258 258
242 214 226 229 244 246 224 256 179 183 203 195 192 190 184 179 174 173 176 178 180 177 177 173 173 178 184 195 197 227 234 225 217 211 146 210 164 221 241 232 260 268 273 282 290 276 266 255 270
184 191 209 226 238 241 232 253 227 183 204 189 181 181 182 179 177 175 173 171 174 175 179 175 174 180 184 189 196 215 227 236 250 241 211 210 190 206 218 223 247 258 278 270 265 270 253 270 280
214 222 221 218 223 232 193 245 259 121 179 195 178 172 175 177 176 175 174 172 176 178 181 179 176 182 186 187 196 207 219 216 213 233 213 244 228 214 210 241 247 262 267 266 268 253 273 265 266
221 237 248 256 253 217 199 239 115 124 158 177 175 167 166 171 172 174 175 177 180 182 181 184 180 183 184 184 191 202 217 225 214 216 259 239 256 257 247 243 245 253 260 259 259 261 256 259 261
217 230 258 267 265 265 222 207 175 162 176 173 171 168 169 173 174 176 175 179 180 184 183 182 182 181 185 187 189 196 207 229 236 227 234 244 249 242 226 243 242 243 249 260 257 263 274 268 257
256 245 235 247 257 257 233 230 205 169 186 181 178 178 174 176 177 175 174 175 176 180 178 179 178 181 184 188 195 186 197 206 221 236 232 249 251 261 247 237 240 241 242 246 255 252 254 256 257
200 215 235 253 266 270 262 205 70 170 180 190 183 177 175 177 176 170 167 168 171 174 172 172 176 178 181 185 187 193 193 199 210 217 224 227 240 240 241 243 242 241 239 244 253 267 263 260 265
237 237 231 240 243 257 273 243 90 111 156 164 163 157 166 172 171 165 160 161 166 167 168 170 178 179 180 180 185 190 195 202 211 214 222 226 231 236 235 241 242 242 238 245 248 260 263 262 263